[[{"header":{"parameterUnit":"m.s-1","parameterCategory":2,"la1":30.2991,"la2":30.254,"lo1":-89.0895,"lo2":-89.0444,"dy":0.0017,"dx":0.0017,"nx":28,"ny":28,"refTime":"2026-03-03T09:00:00:Z","depth":"0","parameterNumber":2,"parameterNumberName":"U-component_of_CURRENTS"},"data":[0,0,0,0,0,0,0,0,0,0,0,0,0,0,0,0,0,0,0,0,0,0,0,0,0,0,0,0,0,0,0,0,0,0,0,0,0,0,0,0,0,0,0,0,0,0,0,0,0,0,0,0,0,0,0,0,0,0,-0.1772,-0.1772,0,-0.1778,-0.1778,-0.1778,-0.1768,-0.1768,-0.1768,-0.1767,-0.1736,-0.1735,-0.1735,0,0,0,0,0,0,0,0,0,0,0,0,0,-0.1737,-0.1738,-0.1772,-0.1772,-0.1773,-0.1778,-0.1778,-0.1778,-0.1768,-0.1768,-0.1768,-0.1767,-0.1736,-0.1735,-0.1735,0,0,0,0,0,0,0,0,0,0,0,0,0,-0.1747,-0.1738,-0.1772,-0.177,-0.177,-0.1778,-0.1778,-0.1778,-0.1768,-0.1768,-0.1768,-0.1767,-0.1736,-0.1735,-0.1734,-0.1733,0,0,-0.1731,-0.1731,0,0,0,0,0,0,0,0,-0.1746,-0.1748,-0.177,-0.177,-0.177,-0.1774,-0.1754,-0.1762,-0.1768,-0.1767,-0.1767,-0.1767,-0.1747,-0.1745,-0.1744,-0.1732,-0.1731,-0.1731,-0.1731,-0.173,-0.173,0,0,0,0,0,0,0,-0.1746,-0.1748,-0.1773,-0.177,-0.177,-0.1763,-0.1764,-0.1756,-0.1756,-0.1767,-0.1767,-0.177,-0.1746,-0.1745,-0.1743,-0.173,-0.1731,-0.173,-0.173,-0.1729,-0.1733,-0.1734,0,0,0,0,0,0,-0.175,-0.1747,-0.1773,-0.1773,-0.1759,-0.1764,-0.1766,-0.1771,-0.1757,-0.1755,-0.1771,-0.177,-0.1747,-0.1745,-0.1742,-0.1746,-0.173,-0.1729,-0.1729,-0.1733,-0.1733,-0.1734,0,0,0,0,0,0,-0.1749,-0.1752,-0.1772,-0.1761,-0.1764,-0.1766,-0.1772,-0.1772,-0.1771,-0.176,-0.1758,-0.177,-0.1747,-0.1744,-0.1739,-0.1744,-0.1729,-0.1728,-0.1732,-0.1733,-0.1734,-0.1749,0,0,0,0,0,0,-0.1748,-0.1752,-0.1753,-0.1762,-0.1765,-0.1779,-0.1772,-0.1772,-0.1775,-0.1774,-0.1759,-0.1756,-0.1746,-0.1741,-0.1738,-0.1742,-0.1727,-0.1731,-0.1732,-0.1733,-0.1747,-0.175,-0.1753,0,0,0,0,0,-0.1747,-0.1749,-0.1753,-0.1756,-0.1768,-0.1779,-0.178,-0.1778,-0.1775,-0.1776,-0.1769,-0.1757,-0.1748,-0.174,-0.1737,-0.1741,-0.173,-0.1732,-0.1733,-0.1746,-0.175,-0.1753,0,0,0,0,0,0,-0.173,-0.1749,-0.1753,-0.176,-0.177,-0.1778,-0.1778,-0.178,-0.1776,-0.1773,-0.1761,-0.1758,-0.1758,-0.175,-0.1743,-0.1749,-0.1739,-0.174,-0.175,-0.1753,-0.1755,-0.1762,-0.1726,0,0,0,0,0,-0.1729,-0.1737,-0.1754,-0.1758,-0.1765,-0.1772,-0.1775,-0.1778,-0.1779,-0.1777,-0.1769,-0.1764,-0.1763,-0.1758,-0.1754,-0.1753,-0.1762,-0.1756,-0.1759,-0.1761,-0.1766,-0.1787,-0.1792,-0.1739,-0.1739,-0.1739,0,0,-0.1722,-0.1734,-0.1737,-0.1755,-0.1762,-0.1776,-0.1772,-0.178,-0.1789,-0.1773,-0.1776,-0.1771,-0.1766,-0.1767,-0.1767,-0.176,-0.1782,-0.1763,-0.1765,-0.1769,-0.1789,-0.1794,-0.1798,-0.174,-0.174,-0.174,0,0,-0.1717,-0.1726,-0.1734,-0.1747,-0.1764,-0.1772,-0.1777,-0.1788,-0.179,-0.1795,-0.179,-0.1791,-0.1783,-0.1785,-0.1784,-0.18,-0.1797,-0.1797,-0.1811,-0.1831,-0.1835,-0.1839,-0.1863,-0.1869,-0.1796,-0.1796,-0.1796,0,-0.1708,-0.1724,-0.1736,-0.1752,-0.1765,-0.1774,-0.1789,-0.1795,-0.1802,-0.1811,-0.1798,-0.1807,-0.1794,-0.181,-0.1811,-0.1806,-0.1817,-0.1797,-0.1834,-0.1838,-0.1842,-0.1865,-0.1871,-0.1797,-0.1797,-0.1797,-0.1797,0,-0.1714,-0.1729,-0.1735,-0.1761,-0.1776,-0.1788,-0.1808,-0.1819,-0.1821,-0.183,-0.1845,-0.1834,-0.184,-0.1836,-0.1822,-0.1845,-0.1846,-0.1836,-0.1825,-0.1848,-0.1871,-0.1877,-0.1799,-0.1798,-0.1798,-0.1798,0,0,-0.1687,-0.1732,-0.1733,-0.1755,-0.1784,-0.18,-0.1821,-0.1848,-0.1875,-0.1869,-0.1903,-0.1885,-0.1881,-0.1881,-0.187,-0.1879,-0.1907,-0.1864,-0.1865,-0.1885,-0.1956,-0.1917,-0.192,-0.1902,-0.1903,-0.1903,-0.1963,0,-0.1687,-0.172,-0.1743,-0.1776,-0.1798,-0.1824,-0.1851,-0.1877,-0.1895,-0.193,-0.1925,-0.1944,-0.1898,-0.1905,-0.1905,-0.1914,-0.1923,-0.1892,-0.1932,-0.1934,-0.1894,-0.1926,-0.185,-0.1894,-0.1969,-0.197,-0.1971,0,-0.1679,-0.1709,-0.1741,-0.1802,-0.1815,-0.1835,-0.1891,-0.1916,-0.1964,-0.1981,-0.1995,-0.2,-0.201,-0.1972,-0.1987,-0.1969,-0.1959,-0.1961,-0.1963,-0.1926,-0.1906,-0.1882,-0.1902,-0.1891,-0.1981,-0.198,-0.1979,0,-0.1652,-0.1706,-0.1733,-0.1751,-0.1818,-0.1838,-0.187,-0.1923,-0.1959,-0.2012,-0.2046,-0.206,-0.2072,-0.2066,-0.204,-0.2022,-0.2067,-0.2046,-0.2007,-0.2005,-0.1948,-0.1938,-0.1959,-0.2062,-0.2061,-0.2061,-0.2061,0,-0.164,-0.1663,-0.1722,-0.1738,-0.1782,-0.1829,-0.1879,-0.1919,-0.1988,-0.2035,-0.2059,-0.2094,-0.2093,-0.211,-0.2082,-0.2062,-0.2096,-0.202,-0.2019,-0.1951,-0.1942,-0.1934,-0.1933,-0.2064,-0.2063,-0.2063,-0.2062,0,-0.1601,-0.1638,-0.1676,-0.1746,-0.1766,-0.1793,-0.1874,-0.1916,-0.1983,-0.2049,-0.2067,-0.2129,-0.2145,-0.2145,-0.2154,-0.2113,-0.2071,-0.2086,-0.2006,-0.1993,-0.1933,-0.1935,-0.1939,-0.1895,-0.2065,-0.2064,-0.2064,0,-0.1584,-0.1595,-0.1665,-0.1683,-0.171,-0.1761,-0.1799,-0.1889,-0.1937,-0.2057,-0.2085,-0.2141,-0.2156,-0.2167,-0.2123,-0.2096,-0.2056,-0.2004,-0.1947,-0.1929,-0.1931,-0.1915,-0.1877,-0.1887,-0.1885,-0.1883,-0.1882,0,-0.1544,-0.1563,-0.1592,-0.1632,-0.1667,-0.1721,-0.1781,-0.1825,-0.1934,-0.1996,-0.2072,-0.2104,-0.2135,-0.2082,-0.2052,-0.201,-0.1953,-0.197,-0.1974,-0.1814,-0.1777,-0.1734,-0.1859,-0.1868,-0.1869,-0.187,-0.1871,-0.1872,-0.15,-0.1504,-0.1531,-0.1564,-0.1608,-0.165,-0.1659,-0.1744,-0.1806,-0.1878,-0.1979,-0.2004,-0.201,-0.196,-0.1936,-0.1859,-0.1867,-0.1788,-0.1801,-0.1795,-0.1718,-0.1813,-0.1801,-0.1802,-0.1803,-0.1804,-0.1804,0,-0.1433,-0.1437,-0.1461,-0.1488,-0.1497,-0.1554,-0.1619,-0.1615,-0.1645,-0.1749,-0.1795,-0.1846,-0.1801,-0.1816,-0.1771,-0.1709,-0.166,-0.1662,-0.1626,-0.1601,-0.1705,-0.166,-0.1589,-0.1589,-0.1589,-0.1589,-0.1589,-0.1589,-0.1396,-0.1376,-0.1386,-0.1359,-0.1377,-0.1353,-0.1366,-0.1384,-0.1432,-0.1479,-0.1547,-0.1641,-0.1664,-0.1771,-0.1707,-0.1636,-0.1589,-0.1531,-0.1555,-0.1636,-0.1649,-0.1661,-0.1619,-0.1541,-0.1541,-0.1394,-0.1393,-0.1392]},{"header":{"parameterUnit":"m.s-1","parameterCategory":2,"la1":30.2991,"la2":30.254,"lo1":-89.0895,"lo2":-89.0444,"dy":0.0017,"dx":0.0017,"nx":28,"ny":28,"refTime":"2026-03-03T09:00:00:Z","depth":"0","parameterNumber":3,"parameterNumberName":"V-component_of_CURRENTS"},"data":[0,0,0,0,0,0,0,0,0,0,0,0,0,0,0,0,0,0,0,0,0,0,0,0,0,0,0,0,0,0,0,0,0,0,0,0,0,0,0,0,0,0,0,0,0,0,0,0,0,0,0,0,0,0,0,0,0,0,-0.0123,-0.0122,0,-0.006,-0.006,-0.0059,-0.0022,-0.0022,-0.0022,-0.0022,0.0042,0.0043,0.0045,0,0,0,0,0,0,0,0,0,0,0,0,0,-0.0178,-0.0177,-0.0123,-0.0122,-0.0121,-0.0061,-0.006,-0.0059,-0.0022,-0.0022,-0.0022,-0.0021,0.0041,0.0043,0.0045,0,0,0,0,0,0,0,0,0,0,0,0,0,-0.0138,-0.0177,-0.0123,-0.0096,-0.0094,-0.0061,-0.006,-0.0058,-0.0022,-0.0022,-0.0022,-0.0021,0.0041,0.0043,0.0045,0.0059,0,0,0.0053,0.0054,0,0,0,0,0,0,0,0,-0.014,-0.0136,-0.0101,-0.0098,-0.0095,-0.005,-0.0056,-0.002,-0.0022,-0.0048,-0.0022,-0.0021,0.001,0.0015,0.0029,0.0061,0.0064,0.0053,0.0055,0.0056,0.0056,0,0,0,0,0,0,0,-0.0143,-0.0138,-0.0097,-0.01,-0.0097,-0.0077,-0.0071,-0.0049,-0.0019,-0.0046,-0.0043,-0.0038,0.0012,0.0026,0.003,0.0065,0.0053,0.0055,0.0057,0.0058,0.0133,0.0134,0,0,0,0,0,0,-0.0155,-0.0141,-0.0099,-0.0095,-0.0119,-0.0076,-0.007,-0.0063,-0.0019,-0.0013,-0.0038,-0.0036,0.0022,0.0027,0.0033,0.0059,0.0056,0.0058,0.0059,0.0133,0.0133,0.0134,0,0,0,0,0,0,-0.0156,-0.0151,-0.0101,-0.0118,-0.011,-0.0076,-0.0069,-0.0062,-0.0049,-0.0014,-0.0007,-0.0032,0.0022,0.0029,0.0058,0.0061,0.0059,0.0061,0.0132,0.0133,0.0134,0.0105,0,0,0,0,0,0,-0.0158,-0.0152,-0.0153,-0.0118,-0.011,-0.0086,-0.0069,-0.0061,-0.0046,-0.0044,-0.0006,0.0,0.0023,0.0054,0.0061,0.0064,0.0063,0.0131,0.0133,0.0133,0.0105,0.0105,0.0105,0,0,0,0,0,-0.016,-0.0162,-0.0153,-0.0148,-0.0111,-0.0086,-0.0079,-0.0054,-0.0046,-0.0042,-0.0011,-0.0001,0.0065,0.0057,0.0064,0.0068,0.0131,0.0132,0.0133,0.0106,0.0105,0.0105,0,0,0,0,0,0,-0.0185,-0.0157,-0.0147,-0.014,-0.0117,-0.008,-0.0075,-0.0057,-0.0029,-0.0028,0.0006,0.0014,0.0041,0.006,0.005,0.0095,0.01,0.0102,0.0076,0.0076,0.0076,0.0062,0.0065,0,0,0,0,0,-0.0192,-0.0186,-0.0155,-0.015,-0.0141,-0.0109,-0.0097,-0.0079,-0.005,-0.0038,-0.001,0.0022,0.0052,0.0067,0.0095,0.0118,0.0143,0.0127,0.0126,0.0126,0.0121,0.0164,0.0167,0.0138,0.0138,0.0138,0,0,-0.0201,-0.0185,-0.0182,-0.0156,-0.0137,-0.0125,-0.0101,-0.0085,-0.0073,-0.0036,-0.0012,0.0019,0.0058,0.0086,0.0099,0.0102,0.0149,0.0127,0.0126,0.0122,0.0166,0.0169,0.0171,0.0139,0.0139,0.0139,0,0,-0.0219,-0.0202,-0.0204,-0.0187,-0.0162,-0.014,-0.0138,-0.0103,-0.0084,-0.0057,-0.0025,0.0009,0.0049,0.0083,0.0104,0.0118,0.0144,0.0125,0.0113,0.0155,0.0158,0.016,0.02,0.0206,0.0126,0.0126,0.0126,0,-0.0232,-0.0228,-0.0201,-0.0196,-0.0186,-0.015,-0.0149,-0.0122,-0.0081,-0.0065,-0.0056,0.0018,0.0049,0.0093,0.0099,0.0116,0.0142,0.0109,0.0154,0.0157,0.016,0.02,0.0207,0.0125,0.0125,0.0125,0.0125,0,-0.0248,-0.0245,-0.0244,-0.0227,-0.0211,-0.0205,-0.0167,-0.0148,-0.0124,-0.0093,-0.0049,0.0,0.0044,0.0062,0.0084,0.0123,0.0136,0.0146,0.0151,0.0161,0.0203,0.0211,0.0123,0.0124,0.0124,0.0124,0,0,-0.0278,-0.0261,-0.0261,-0.0264,-0.0228,-0.0221,-0.0196,-0.0164,-0.0152,-0.0102,-0.0077,-0.0015,0.0013,0.004,0.0078,0.0116,0.0163,0.0135,0.0138,0.0166,0.0256,0.0277,0.0288,0.0179,0.018,0.0181,0.0278,0,-0.03,-0.0311,-0.0288,-0.0295,-0.0299,-0.0258,-0.0241,-0.0204,-0.0166,-0.0131,-0.0066,-0.0029,0.0006,0.0024,0.0071,0.014,0.0182,0.0136,0.0249,0.0252,0.0263,0.0297,0.0314,0.0403,0.0286,0.0287,0.0288,0,-0.0323,-0.033,-0.0345,-0.0339,-0.0336,-0.033,-0.0301,-0.0279,-0.0213,-0.0182,-0.0124,-0.0074,-0.0,0.002,0.0146,0.0114,0.018,0.0233,0.0238,0.0271,0.0288,0.0375,0.0423,0.0544,0.0301,0.03,0.0299,0,-0.0369,-0.0369,-0.0388,-0.0384,-0.0367,-0.0363,-0.035,-0.0297,-0.0283,-0.0213,-0.0194,-0.0096,-0.005,0.0047,0.0165,0.0155,0.0302,0.0304,0.0387,0.039,0.0433,0.0437,0.0604,0.0388,0.0388,0.0388,0.0387,0,-0.0404,-0.0418,-0.0414,-0.0426,-0.045,-0.0413,-0.0419,-0.0388,-0.034,-0.0323,-0.0228,-0.0191,-0.0043,0.0061,0.0163,0.0308,0.0307,0.0394,0.042,0.0425,0.0427,0.0557,0.0591,0.0391,0.039,0.039,0.0389,0,-0.0449,-0.0443,-0.0471,-0.0471,-0.0474,-0.0492,-0.0481,-0.0483,-0.0425,-0.0397,-0.0378,-0.0253,-0.011,0.0044,0.0213,0.0304,0.0502,0.0484,0.048,0.0504,0.068,0.071,0.0865,0.0909,0.0591,0.0592,0.0593,0,-0.0473,-0.0492,-0.052,-0.0546,-0.0549,-0.0566,-0.058,-0.0536,-0.0532,-0.0436,-0.043,-0.0282,-0.0168,0.01,0.029,0.0491,0.0564,0.0612,0.0595,0.0706,0.0759,0.0768,0.0793,0.0648,0.065,0.0651,0.0652,0,-0.0523,-0.0532,-0.0559,-0.0619,-0.0647,-0.0678,-0.0688,-0.0695,-0.0632,-0.0588,-0.0498,-0.0392,-0.0114,0.0136,0.0404,0.0518,0.0684,0.0639,0.0765,0.0829,0.0839,0.0888,0.0566,0.0662,0.0661,0.066,0.0659,0.0659,-0.0558,-0.0597,-0.0638,-0.0692,-0.0734,-0.0778,-0.0801,-0.079,-0.0772,-0.0681,-0.0564,-0.0378,0.0007,0.0394,0.0527,0.0822,0.0775,0.0906,0.0938,0.094,0.0974,0.0668,0.0781,0.0781,0.078,0.078,0.078,0,-0.0603,-0.0648,-0.0709,-0.0772,-0.0834,-0.0836,-0.0867,-0.0872,-0.085,-0.0711,-0.059,-0.0162,0.0206,0.0551,0.0978,0.1127,0.1134,0.1199,0.1231,0.1245,0.1002,0.0996,0.1147,0.1147,0.1147,0.1147,0.1146,0.1146,-0.0627,-0.0701,-0.0736,-0.0847,-0.0891,-0.0955,-0.0974,-0.096,-0.0878,-0.0646,-0.0395,-0.0184,0.0346,0.103,0.1415,0.1437,0.154,0.1519,0.1574,0.143,0.1405,0.1381,0.1388,0.1619,0.1619,0.1802,0.1804,0.1806]}],[{"header":{"parameterUnit":"m.s-1","parameterCategory":2,"la1":30.2991,"la2":30.254,"lo1":-89.0895,"lo2":-89.0444,"dy":0.0017,"dx":0.0017,"nx":28,"ny":28,"refTime":"2026-03-03T09:00:00:Z","depth":"2","parameterNumber":2,"parameterNumberName":"U-component_of_CURRENTS"},"data":[0,0,0,0,0,0,0,0,0,0,0,0,0,0,0,0,0,0,0,0,0,0,0,0,0,0,0,0,0,0,0,0,0,0,0,0,0,0,0,0,0,0,0,0,0,0,0,0,0,0,0,0,0,0,0,0,0,0,-0.1563,-0.1563,0,-0.1566,-0.1565,-0.1565,-0.156,-0.156,-0.156,-0.156,-0.1529,-0.1528,-0.1527,0,0,0,0,0,0,0,0,0,0,0,0,0,-0.1536,-0.1536,-0.1563,-0.1563,-0.1564,-0.1566,-0.1565,-0.1565,-0.156,-0.156,-0.156,-0.156,-0.1529,-0.1528,-0.1527,0,0,0,0,0,0,0,0,0,0,0,0,0,-0.1542,-0.1536,-0.1563,-0.1563,-0.1563,-0.1566,-0.1565,-0.1565,-0.156,-0.156,-0.156,-0.156,-0.1529,-0.1528,-0.1527,-0.1518,0,0,-0.1523,-0.1522,0,0,0,0,0,0,0,0,-0.1542,-0.1543,-0.1563,-0.1563,-0.1563,-0.1565,-0.1544,-0.1548,-0.156,-0.1559,-0.156,-0.156,-0.1539,-0.1537,-0.1535,-0.1516,-0.1515,-0.1523,-0.1522,-0.1521,-0.1521,0,0,0,0,0,0,0,-0.1541,-0.1542,-0.1562,-0.1563,-0.1563,-0.1557,-0.1557,-0.1545,-0.1546,-0.1559,-0.1559,-0.1563,-0.1538,-0.1536,-0.1534,-0.1514,-0.1523,-0.1521,-0.1521,-0.152,-0.1513,-0.1514,0,0,0,0,0,0,-0.1546,-0.1542,-0.1562,-0.1562,-0.1555,-0.1557,-0.1558,-0.1562,-0.1547,-0.1546,-0.1563,-0.1563,-0.1538,-0.1535,-0.1532,-0.1539,-0.1521,-0.152,-0.1519,-0.1513,-0.1514,-0.1514,0,0,0,0,0,0,-0.1546,-0.1548,-0.1562,-0.1554,-0.1555,-0.1558,-0.1563,-0.1562,-0.1565,-0.1551,-0.1548,-0.1567,-0.1538,-0.1534,-0.1529,-0.1537,-0.1519,-0.1518,-0.1512,-0.1513,-0.1514,-0.154,0,0,0,0,0,0,-0.1545,-0.1548,-0.155,-0.1554,-0.1556,-0.1567,-0.1563,-0.1563,-0.1568,-0.1568,-0.1553,-0.155,-0.1538,-0.1531,-0.1528,-0.1535,-0.1517,-0.1511,-0.1513,-0.1514,-0.1538,-0.1541,-0.1544,0,0,0,0,0,-0.1544,-0.1546,-0.155,-0.1552,-0.156,-0.1568,-0.1568,-0.1568,-0.1568,-0.157,-0.1563,-0.1551,-0.1537,-0.1531,-0.1527,-0.1533,-0.1511,-0.1512,-0.1514,-0.1537,-0.1541,-0.1544,0,0,0,0,0,0,-0.1531,-0.1546,-0.155,-0.1556,-0.1564,-0.1568,-0.1569,-0.1572,-0.1568,-0.1567,-0.1554,-0.155,-0.155,-0.1539,-0.1533,-0.1536,-0.1523,-0.1524,-0.1542,-0.1546,-0.1549,-0.1555,-0.1516,0,0,0,0,0,-0.1531,-0.1537,-0.1551,-0.1554,-0.1561,-0.1566,-0.1569,-0.1573,-0.1572,-0.1571,-0.1563,-0.1556,-0.1552,-0.1547,-0.154,-0.1537,-0.1543,-0.1541,-0.1544,-0.1547,-0.1551,-0.1567,-0.1572,-0.1519,-0.1519,-0.1519,0,0,-0.1526,-0.1535,-0.1538,-0.1552,-0.1558,-0.157,-0.1567,-0.1575,-0.1585,-0.1567,-0.1572,-0.1565,-0.1554,-0.1554,-0.1553,-0.1546,-0.1567,-0.1549,-0.1551,-0.1553,-0.1569,-0.1574,-0.1579,-0.152,-0.152,-0.1519,0,0,-0.1521,-0.153,-0.1536,-0.1548,-0.1564,-0.157,-0.1576,-0.1586,-0.1589,-0.1594,-0.1587,-0.1588,-0.1576,-0.1575,-0.1571,-0.1587,-0.1583,-0.1585,-0.1603,-0.1619,-0.1623,-0.1627,-0.1651,-0.1657,-0.1586,-0.1586,-0.1586,0,-0.1516,-0.1528,-0.1538,-0.1552,-0.1564,-0.1573,-0.1588,-0.1593,-0.16,-0.1609,-0.1599,-0.1603,-0.1588,-0.1599,-0.1602,-0.1594,-0.1605,-0.1588,-0.1623,-0.1627,-0.1631,-0.1654,-0.166,-0.1587,-0.1587,-0.1587,-0.1587,0,-0.152,-0.1534,-0.1539,-0.1563,-0.1576,-0.1588,-0.1606,-0.1617,-0.1623,-0.1631,-0.1645,-0.1632,-0.1635,-0.1632,-0.1616,-0.1637,-0.1638,-0.1625,-0.1613,-0.1638,-0.166,-0.1666,-0.1589,-0.1589,-0.1588,-0.1588,0,0,-0.1496,-0.1536,-0.1538,-0.1558,-0.1585,-0.1598,-0.1619,-0.1644,-0.167,-0.1668,-0.17,-0.1681,-0.1679,-0.1676,-0.1664,-0.1673,-0.1703,-0.1658,-0.1658,-0.1682,-0.1747,-0.1708,-0.171,-0.1696,-0.1697,-0.1697,-0.1757,0,-0.1497,-0.1527,-0.1547,-0.1578,-0.1597,-0.1622,-0.1648,-0.1672,-0.169,-0.1723,-0.1719,-0.1737,-0.1695,-0.1703,-0.1703,-0.1707,-0.1718,-0.1688,-0.172,-0.1722,-0.1683,-0.1715,-0.1559,-0.1595,-0.1762,-0.1763,-0.1764,0,-0.149,-0.1516,-0.1546,-0.1601,-0.1613,-0.1633,-0.1686,-0.1709,-0.1754,-0.1772,-0.1787,-0.1791,-0.1801,-0.1767,-0.1778,-0.1762,-0.1754,-0.1754,-0.1756,-0.1713,-0.1692,-0.1596,-0.1599,-0.1774,-0.1773,-0.1772,-0.1772,0,-0.1465,-0.1514,-0.154,-0.1556,-0.1617,-0.1638,-0.1669,-0.1718,-0.1751,-0.1803,-0.1836,-0.1849,-0.1861,-0.1855,-0.183,-0.1813,-0.1853,-0.183,-0.1792,-0.179,-0.1659,-0.1644,-0.1845,-0.1845,-0.1845,-0.1845,-0.1844,0,-0.1454,-0.1476,-0.1532,-0.1546,-0.1589,-0.1632,-0.1681,-0.1718,-0.1783,-0.1825,-0.1851,-0.188,-0.1881,-0.1896,-0.1869,-0.1848,-0.188,-0.1806,-0.1803,-0.1665,-0.165,-0.1801,-0.1795,-0.1847,-0.1846,-0.1846,-0.1845,0,-0.1419,-0.1454,-0.149,-0.1555,-0.1575,-0.1602,-0.1678,-0.1716,-0.1781,-0.184,-0.1858,-0.1915,-0.1927,-0.193,-0.1935,-0.1895,-0.1885,-0.1868,-0.171,-0.1688,-0.1808,-0.1803,-0.1846,-0.1845,-0.1844,-0.1843,-0.1843,0,-0.1403,-0.1414,-0.1481,-0.1498,-0.1525,-0.1574,-0.161,-0.1694,-0.1736,-0.1845,-0.1868,-0.1921,-0.1928,-0.1936,-0.1885,-0.1859,-0.1879,-0.1699,-0.163,-0.1815,-0.1808,-0.1804,-0.18,-0.1474,-0.1471,-0.1468,-0.1466,0,-0.1364,-0.1385,-0.1412,-0.1451,-0.1486,-0.1534,-0.159,-0.1627,-0.1727,-0.1781,-0.1843,-0.1867,-0.1887,-0.1785,-0.1758,-0.1709,-0.1691,-0.1641,-0.1877,-0.1497,-0.1469,-0.1461,-0.1469,-0.144,-0.1443,-0.1445,-0.1446,-0.1447,-0.1323,-0.1329,-0.1356,-0.1388,-0.143,-0.1464,-0.147,-0.1541,-0.1592,-0.1639,-0.1734,-0.1711,-0.1707,-0.1582,-0.1522,-0.1467,-0.1573,-0.1476,-0.1483,-0.1494,-0.1438,-0.141,-0.1361,-0.1363,-0.1365,-0.1366,-0.1368,0,-0.1256,-0.1266,-0.129,-0.1315,-0.132,-0.1376,-0.1428,-0.1409,-0.1423,-0.1486,-0.1513,-0.1367,-0.132,-0.132,-0.1208,-0.1201,-0.1169,-0.1136,-0.108,-0.1106,-0.1129,-0.1054,-0.0875,-0.0874,-0.0873,-0.0872,0,0,-0.1219,-0.1203,-0.1215,-0.1187,-0.1206,-0.1177,-0.1184,-0.1172,-0.1184,-0.1143,-0.1126,-0.1234,-0.1272,-0.1065,-0.1027,-0.0935,-0.1006,-0.0887,-0.1278,-0.1237,-0.1258,-0.132,-0.1233,0,0,0,0,0]},{"header":{"parameterUnit":"m.s-1","parameterCategory":2,"la1":30.2991,"la2":30.254,"lo1":-89.0895,"lo2":-89.0444,"dy":0.0017,"dx":0.0017,"nx":28,"ny":28,"refTime":"2026-03-03T09:00:00:Z","depth":"2","parameterNumber":3,"parameterNumberName":"V-component_of_CURRENTS"},"data":[0,0,0,0,0,0,0,0,0,0,0,0,0,0,0,0,0,0,0,0,0,0,0,0,0,0,0,0,0,0,0,0,0,0,0,0,0,0,0,0,0,0,0,0,0,0,0,0,0,0,0,0,0,0,0,0,0,0,-0.0156,-0.0155,0,-0.0097,-0.0096,-0.0095,-0.0059,-0.0059,-0.0059,-0.0059,-0.0,0.0001,0.0003,0,0,0,0,0,0,0,0,0,0,0,0,0,-0.0208,-0.0207,-0.0156,-0.0155,-0.0155,-0.0097,-0.0096,-0.0095,-0.0059,-0.0059,-0.0059,-0.0059,-0.0001,0.0001,0.0003,0,0,0,0,0,0,0,0,0,0,0,0,0,-0.017,-0.0207,-0.0156,-0.0131,-0.0128,-0.0097,-0.0096,-0.0095,-0.0059,-0.0059,-0.0059,-0.0059,-0.0001,0.0001,0.0003,0.0015,0,0,0.001,0.0011,0,0,0,0,0,0,0,0,-0.0172,-0.0168,-0.0135,-0.0132,-0.0129,-0.0086,-0.0093,-0.0059,-0.0059,-0.0084,-0.0059,-0.0059,-0.003,-0.0025,-0.0013,0.0017,0.002,0.001,0.0012,0.0013,0.0013,0,0,0,0,0,0,0,-0.0175,-0.017,-0.0131,-0.0134,-0.0131,-0.0112,-0.0107,-0.0086,-0.0058,-0.0082,-0.008,-0.0075,-0.0028,-0.0015,-0.0011,0.0021,0.001,0.0012,0.0014,0.0014,0.0085,0.0085,0,0,0,0,0,0,-0.0186,-0.0173,-0.0133,-0.013,-0.0152,-0.0111,-0.0105,-0.0099,-0.0058,-0.0052,-0.0075,-0.0073,-0.0019,-0.0014,-0.0009,0.0016,0.0013,0.0015,0.0016,0.0084,0.0085,0.0085,0,0,0,0,0,0,-0.0187,-0.0183,-0.0136,-0.0151,-0.0144,-0.0111,-0.0104,-0.0098,-0.0085,-0.0052,-0.0046,-0.0069,-0.0019,-0.0012,0.0015,0.0018,0.0016,0.0018,0.0084,0.0084,0.0085,0.006,0,0,0,0,0,0,-0.0189,-0.0184,-0.0184,-0.0152,-0.0143,-0.0121,-0.0104,-0.0097,-0.0083,-0.008,-0.0045,-0.0039,-0.0018,0.0012,0.0017,0.0021,0.0019,0.0083,0.0084,0.0085,0.006,0.006,0.0059,0,0,0,0,0,-0.0191,-0.0193,-0.0184,-0.018,-0.0145,-0.0121,-0.0115,-0.0091,-0.0083,-0.0078,-0.0049,-0.004,0.0022,0.0014,0.0021,0.0025,0.0082,0.0084,0.0085,0.006,0.006,0.0059,0,0,0,0,0,0,-0.0215,-0.0188,-0.0179,-0.0172,-0.0151,-0.0116,-0.011,-0.0094,-0.0067,-0.0065,-0.0033,-0.0025,-0.0001,0.0017,0.0008,0.0049,0.0054,0.0056,0.0033,0.0033,0.0032,0.0019,0.0021,0,0,0,0,0,-0.0221,-0.0217,-0.0187,-0.0183,-0.0174,-0.0143,-0.0131,-0.0114,-0.0087,-0.0075,-0.0049,-0.0019,0.001,0.0024,0.005,0.0071,0.0093,0.0079,0.0079,0.0079,0.0074,0.0113,0.0115,0.0089,0.0089,0.0089,0,0,-0.0231,-0.0215,-0.0213,-0.0188,-0.0169,-0.0159,-0.0135,-0.012,-0.0108,-0.0073,-0.005,-0.0021,0.0015,0.0042,0.0054,0.0057,0.0099,0.008,0.0079,0.0075,0.0114,0.0116,0.0119,0.009,0.009,0.009,0,0,-0.0248,-0.0232,-0.0234,-0.0217,-0.0194,-0.0173,-0.0171,-0.0137,-0.0119,-0.0094,-0.0063,-0.0031,0.0007,0.0039,0.0059,0.0073,0.0095,0.0079,0.0068,0.0106,0.0108,0.011,0.0146,0.0151,0.008,0.008,0.008,0,-0.026,-0.0257,-0.0231,-0.0227,-0.0217,-0.0183,-0.0182,-0.0156,-0.0117,-0.0101,-0.0092,-0.0022,0.0007,0.0048,0.0055,0.0071,0.0094,0.0064,0.0104,0.0107,0.011,0.0145,0.0152,0.0079,0.0079,0.0079,0.008,0,-0.0276,-0.0273,-0.0273,-0.0256,-0.0241,-0.0235,-0.0199,-0.0181,-0.0158,-0.0129,-0.0087,-0.0039,0.0001,0.0019,0.0041,0.0077,0.0088,0.0097,0.0101,0.011,0.0148,0.0155,0.0078,0.0078,0.0078,0.0079,0,0,-0.0305,-0.0289,-0.0289,-0.0292,-0.0258,-0.0251,-0.0228,-0.0198,-0.0187,-0.0139,-0.0116,-0.0056,-0.0029,-0.0004,0.0033,0.0069,0.0112,0.0087,0.0089,0.0114,0.0194,0.0213,0.0222,0.0126,0.0127,0.0128,0.0214,0,-0.0327,-0.0337,-0.0315,-0.0322,-0.0326,-0.0286,-0.0271,-0.0237,-0.0201,-0.0169,-0.0107,-0.0073,-0.0037,-0.0019,0.0025,0.0089,0.0128,0.0087,0.0188,0.0191,0.02,0.0231,0.0192,0.0267,0.0221,0.0223,0.0223,0,-0.0348,-0.0355,-0.0369,-0.0365,-0.0362,-0.0356,-0.033,-0.031,-0.0249,-0.022,-0.0166,-0.0118,-0.0049,-0.0028,0.009,0.0062,0.0123,0.0173,0.0178,0.0207,0.0223,0.0251,0.0282,0.0236,0.0235,0.0234,0.0233,0,-0.0392,-0.0392,-0.041,-0.0407,-0.0391,-0.0388,-0.0376,-0.0327,-0.0315,-0.025,-0.0234,-0.0143,-0.01,-0.0009,0.0104,0.0096,0.023,0.0234,0.031,0.0312,0.0306,0.0305,0.0312,0.0311,0.0311,0.0311,0.0311,0,-0.0426,-0.0439,-0.0436,-0.0446,-0.0471,-0.0435,-0.0443,-0.0414,-0.037,-0.0356,-0.0267,-0.0235,-0.0095,0.0001,0.0099,0.0234,0.0232,0.0315,0.0339,0.0297,0.0295,0.0284,0.028,0.0314,0.0313,0.0313,0.0312,0,-0.0469,-0.0463,-0.049,-0.049,-0.0494,-0.0511,-0.0502,-0.0505,-0.0451,-0.0429,-0.0411,-0.0297,-0.0165,-0.0019,0.0139,0.0225,0.0349,0.0394,0.0336,0.0352,0.0406,0.0399,0.0487,0.0489,0.049,0.0491,0.0492,0,-0.0491,-0.051,-0.0536,-0.0562,-0.0565,-0.0582,-0.0595,-0.0555,-0.0553,-0.0467,-0.0464,-0.0328,-0.0226,0.0024,0.0198,0.0386,0.0387,0.0451,0.0431,0.0411,0.0425,0.0417,0.0409,0.0415,0.0415,0.0416,0.0416,0,-0.054,-0.0548,-0.0573,-0.0631,-0.0659,-0.0689,-0.0699,-0.0707,-0.0649,-0.0612,-0.0533,-0.0438,-0.0187,0.0017,0.0266,0.0366,0.0419,0.0459,0.0465,0.0373,0.0349,0.0361,0.0355,0.0417,0.0417,0.0417,0.0417,0.0416,-0.0573,-0.061,-0.0649,-0.0701,-0.0742,-0.0784,-0.0806,-0.0797,-0.0784,-0.0703,-0.06,-0.0439,-0.0222,0.0124,0.0298,0.0457,0.0459,0.049,0.0487,0.0485,0.0457,0.0437,0.0516,0.0516,0.0516,0.0517,0.0517,0,-0.0616,-0.0658,-0.0717,-0.0777,-0.0836,-0.0839,-0.087,-0.0872,-0.0854,-0.0737,-0.0631,-0.0394,-0.0145,0.0084,0.0336,0.0491,0.0473,0.0508,0.0453,0.0451,0.0449,0.0417,0.0467,0.0467,0.0468,0.0468,0,0,-0.064,-0.0709,-0.0743,-0.0848,-0.089,-0.0952,-0.097,-0.0952,-0.088,-0.0764,-0.0627,-0.043,-0.0144,0.0021,0.0218,0.035,0.0356,0.0356,0.0379,0.0288,0.0285,0.0422,0.037,0,0,0,0,0]}],[{"header":{"parameterUnit":"m.s-1","parameterCategory":2,"la1":30.2991,"la2":30.254,"lo1":-89.0895,"lo2":-89.0444,"dy":0.0017,"dx":0.0017,"nx":28,"ny":28,"refTime":"2026-03-03T09:00:00:Z","depth":"4","parameterNumber":2,"parameterNumberName":"U-component_of_CURRENTS"},"data":[0,0,0,0,0,0,0,0,0,0,0,0,0,0,0,0,0,0,0,0,0,0,0,0,0,0,0,0,0,0,0,0,0,0,0,0,0,0,0,0,0,0,0,0,0,0,0,0,0,0,0,0,0,0,0,0,0,0,-0.1018,-0.1018,0,-0.1036,-0.1036,-0.1036,-0.1057,-0.1058,-0.1058,-0.1059,-0.1048,-0.1047,-0.1046,0,0,0,0,0,0,0,0,0,0,0,0,0,-0.0984,-0.0984,-0.1018,-0.1018,-0.1019,-0.1036,-0.1036,-0.1036,-0.1057,-0.1058,-0.1059,-0.1059,-0.1048,-0.1047,-0.1046,0,0,0,0,0,0,0,0,0,0,0,0,0,-0.0998,-0.0984,-0.1018,-0.1033,-0.1034,-0.1036,-0.1036,-0.1036,-0.1057,-0.1058,-0.1059,-0.1059,-0.1048,-0.1047,-0.1046,-0.1025,0,0,-0.1043,-0.1042,0,0,0,0,0,0,0,0,-0.0997,-0.0999,-0.103,-0.1032,-0.1034,-0.1047,-0.102,-0.1032,-0.1057,-0.1047,-0.1059,-0.106,-0.1045,-0.1045,-0.1044,-0.1024,-0.1024,-0.1043,-0.1042,-0.1041,-0.1041,0,0,0,0,0,0,0,-0.0996,-0.0999,-0.1023,-0.1031,-0.1033,-0.1033,-0.1035,-0.1022,-0.104,-0.1048,-0.105,-0.1054,-0.1046,-0.1045,-0.1044,-0.1024,-0.1043,-0.1042,-0.1041,-0.1041,-0.1022,-0.1022,0,0,0,0,0,0,-0.0998,-0.0998,-0.1023,-0.1024,-0.1019,-0.1033,-0.1036,-0.104,-0.1041,-0.1042,-0.1054,-0.1055,-0.1047,-0.1045,-0.1044,-0.1074,-0.1041,-0.104,-0.104,-0.1022,-0.1022,-0.1022,0,0,0,0,0,0,-0.0997,-0.1,-0.1022,-0.1013,-0.1016,-0.1033,-0.1038,-0.104,-0.1061,-0.1046,-0.1047,-0.1074,-0.1047,-0.1045,-0.1055,-0.1072,-0.104,-0.1039,-0.1022,-0.1022,-0.1022,-0.1099,0,0,0,0,0,0,-0.0996,-0.1,-0.1011,-0.1013,-0.1016,-0.1037,-0.1037,-0.104,-0.1062,-0.1065,-0.1063,-0.1061,-0.1048,-0.1056,-0.1053,-0.107,-0.1038,-0.1021,-0.1022,-0.1022,-0.1097,-0.1102,-0.1107,0,0,0,0,0,-0.0995,-0.1003,-0.1011,-0.1015,-0.1029,-0.1038,-0.104,-0.1053,-0.1063,-0.1073,-0.1077,-0.1063,-0.1056,-0.1056,-0.1052,-0.1069,-0.1021,-0.1022,-0.1022,-0.1094,-0.1101,-0.1107,0,0,0,0,0,0,-0.0994,-0.1007,-0.1015,-0.1028,-0.104,-0.1043,-0.1055,-0.1064,-0.1075,-0.1083,-0.107,-0.1069,-0.1082,-0.106,-0.106,-0.1061,-0.1034,-0.1033,-0.1089,-0.1096,-0.1101,-0.1103,-0.1037,0,0,0,0,0,-0.0999,-0.1011,-0.1022,-0.1034,-0.1042,-0.1053,-0.1062,-0.1072,-0.1079,-0.1086,-0.1087,-0.1081,-0.1075,-0.1076,-0.1065,-0.1069,-0.1059,-0.1073,-0.1078,-0.1083,-0.1081,-0.1086,-0.1092,-0.1024,-0.1024,-0.1024,0,0,-0.1003,-0.1012,-0.1019,-0.1035,-0.1046,-0.1061,-0.1061,-0.108,-0.1098,-0.108,-0.1108,-0.1102,-0.108,-0.1088,-0.1091,-0.1077,-0.11,-0.1083,-0.1088,-0.1083,-0.1087,-0.1094,-0.11,-0.1024,-0.1024,-0.1024,0,0,-0.1009,-0.1025,-0.1036,-0.1049,-0.1071,-0.1078,-0.1089,-0.1106,-0.1121,-0.114,-0.1134,-0.1143,-0.1133,-0.1129,-0.1121,-0.1145,-0.1128,-0.1137,-0.1169,-0.1175,-0.1181,-0.1187,-0.1201,-0.1207,-0.114,-0.114,-0.114,0,-0.1015,-0.103,-0.1041,-0.1057,-0.1074,-0.1089,-0.1109,-0.1122,-0.1142,-0.1157,-0.1157,-0.1163,-0.1151,-0.1162,-0.1171,-0.1159,-0.1161,-0.1153,-0.1185,-0.1189,-0.1193,-0.1207,-0.1212,-0.1144,-0.1143,-0.1143,-0.1143,0,-0.1024,-0.1047,-0.1056,-0.1082,-0.1101,-0.112,-0.1142,-0.1167,-0.1187,-0.1199,-0.1225,-0.1217,-0.1218,-0.1218,-0.1202,-0.1224,-0.1217,-0.1195,-0.1175,-0.1205,-0.1217,-0.1222,-0.1149,-0.1148,-0.1147,-0.1146,0,0,-0.1009,-0.1054,-0.106,-0.1083,-0.1119,-0.1134,-0.1169,-0.1201,-0.1233,-0.125,-0.1287,-0.1281,-0.1284,-0.1274,-0.1263,-0.1269,-0.1308,-0.1248,-0.1247,-0.1275,-0.1333,-0.1247,-0.1244,-0.1297,-0.1298,-0.1299,-0.1338,0,-0.1015,-0.1052,-0.1074,-0.1116,-0.1137,-0.1171,-0.1204,-0.1237,-0.1265,-0.1304,-0.1308,-0.1331,-0.1302,-0.1314,-0.1317,-0.1307,-0.1319,-0.1299,-0.1288,-0.1288,-0.1218,-0.1245,-0.1301,-0.1341,-0.1342,-0.1342,-0.1343,0,-0.1011,-0.104,-0.1082,-0.1142,-0.1156,-0.1187,-0.1249,-0.128,-0.1331,-0.1355,-0.1378,-0.1383,-0.1398,-0.1372,-0.1374,-0.1364,-0.1353,-0.1346,-0.1347,-0.1238,-0.1208,-0.1297,-0.135,-0.135,-0.1349,-0.1349,-0.1348,0,-0.0985,-0.1044,-0.1081,-0.1101,-0.1168,-0.1202,-0.124,-0.1296,-0.133,-0.1389,-0.1419,-0.1436,-0.1449,-0.1439,-0.1411,-0.1401,-0.1415,-0.1397,-0.1314,-0.1309,-0.1343,-0.1337,-0.1404,-0.1404,-0.1404,-0.1403,-0.1403,0,-0.097,-0.1002,-0.1078,-0.1096,-0.1151,-0.1201,-0.1261,-0.1303,-0.1368,-0.1402,-0.1439,-0.1456,-0.1465,-0.1468,-0.1441,-0.1384,-0.1435,-0.1323,-0.131,-0.1376,-0.1373,-0.1348,-0.1341,-0.1405,-0.1405,-0.1404,-0.1404,0,-0.0928,-0.0978,-0.1026,-0.1109,-0.1137,-0.1175,-0.1265,-0.1301,-0.137,-0.1418,-0.1437,-0.1482,-0.1475,-0.1478,-0.1468,-0.141,-0.1376,-0.1346,-0.1433,-0.1424,-0.1266,-0.1263,-0.1264,-0.1261,-0.1259,-0.1257,-0.1255,0,-0.0907,-0.0928,-0.1023,-0.1051,-0.1091,-0.1158,-0.1199,-0.1287,-0.1318,-0.1409,-0.1415,-0.1454,-0.1464,-0.1386,-0.1395,-0.1358,-0.1331,-0.1319,-0.1274,-0.1262,-0.1251,-0.1251,-0.125,-0.1251,-0.1251,-0.125,-0.1249,0,-0.086,-0.0904,-0.0943,-0.1002,-0.1053,-0.1107,-0.1169,-0.1188,-0.1277,-0.136,-0.1354,-0.1348,-0.1347,-0.1322,-0.1306,-0.1272,-0.1328,-0.1294,-0.1298,-0.1256,-0.1247,-0.1238,-0.124,-0.1241,-0.1242,-0.1243,-0.1244,0,-0.0821,-0.084,-0.0891,-0.0936,-0.0997,-0.1021,-0.1073,-0.1105,-0.1149,-0.1251,-0.1243,-0.128,-0.1332,-0.1278,-0.1257,-0.1224,-0.1198,-0.1152,-0.1163,-0.1172,-0.1119,-0.1093,-0.1031,0,0,0,0,0,-0.0771,-0.0779,-0.0817,-0.0856,-0.0913,-0.0945,-0.1032,-0.1084,-0.1178,-0.1144,-0.1191,-0.1181,-0.1157,-0.1174,-0.1116,-0.1209,-0.12,-0.1138,-0.1154,-0.1196,-0.1205,-0.1148,0,0,0,0,0,0,-0.073,-0.0763,-0.0784,-0.0773,-0.0783,-0.0832,-0.0884,-0.0953,-0.0941,-0.1039,-0.1026,-0.1103,-0.1089,-0.1161,-0.1085,-0.1091,-0.1077,-0.1169,-0.1166,-0.119,-0.1199,-0.1207,-0.1151,0,0,0,0,0]},{"header":{"parameterUnit":"m.s-1","parameterCategory":2,"la1":30.2991,"la2":30.254,"lo1":-89.0895,"lo2":-89.0444,"dy":0.0017,"dx":0.0017,"nx":28,"ny":28,"refTime":"2026-03-03T09:00:00:Z","depth":"4","parameterNumber":3,"parameterNumberName":"V-component_of_CURRENTS"},"data":[0,0,0,0,0,0,0,0,0,0,0,0,0,0,0,0,0,0,0,0,0,0,0,0,0,0,0,0,0,0,0,0,0,0,0,0,0,0,0,0,0,0,0,0,0,0,0,0,0,0,0,0,0,0,0,0,0,0,-0.0139,-0.0139,0,-0.0099,-0.0098,-0.0098,-0.0074,-0.0074,-0.0074,-0.0074,-0.0033,-0.0032,-0.0031,0,0,0,0,0,0,0,0,0,0,0,0,0,-0.0171,-0.0171,-0.0139,-0.0139,-0.0139,-0.0099,-0.0098,-0.0098,-0.0074,-0.0074,-0.0074,-0.0074,-0.0034,-0.0032,-0.0031,0,0,0,0,0,0,0,0,0,0,0,0,0,-0.0146,-0.0171,-0.0139,-0.0122,-0.0121,-0.0099,-0.0098,-0.0098,-0.0074,-0.0074,-0.0074,-0.0074,-0.0034,-0.0033,-0.0031,-0.0022,0,0,-0.0026,-0.0026,0,0,0,0,0,0,0,0,-0.0148,-0.0145,-0.0125,-0.0124,-0.0122,-0.0092,-0.0095,-0.0073,-0.0074,-0.0091,-0.0074,-0.0074,-0.0054,-0.005,-0.0042,-0.002,-0.0018,-0.0026,-0.0025,-0.0024,-0.0024,0,0,0,0,0,0,0,-0.0149,-0.0146,-0.0122,-0.0125,-0.0123,-0.0109,-0.0105,-0.009,-0.0072,-0.0089,-0.0088,-0.0085,-0.0052,-0.0043,-0.0041,-0.0018,-0.0026,-0.0025,-0.0024,-0.0023,0.0025,0.0025,0,0,0,0,0,0,-0.0158,-0.0148,-0.0124,-0.0121,-0.0136,-0.0108,-0.0104,-0.0101,-0.0072,-0.0068,-0.0085,-0.0084,-0.0046,-0.0042,-0.0039,-0.0021,-0.0024,-0.0023,-0.0022,0.0025,0.0025,0.0026,0,0,0,0,0,0,-0.0158,-0.0156,-0.0125,-0.0135,-0.013,-0.0108,-0.0104,-0.01,-0.0092,-0.0069,-0.0065,-0.0081,-0.0046,-0.0041,-0.0021,-0.002,-0.0022,-0.0021,0.0024,0.0025,0.0025,0.0011,0,0,0,0,0,0,-0.0159,-0.0156,-0.0159,-0.0135,-0.013,-0.0117,-0.0104,-0.0099,-0.0091,-0.0089,-0.0065,-0.0061,-0.0045,-0.0024,-0.002,-0.0018,-0.002,0.0024,0.0025,0.0025,0.0011,0.0011,0.0011,0,0,0,0,0,-0.0161,-0.0164,-0.0159,-0.0156,-0.0133,-0.0117,-0.0113,-0.0096,-0.0091,-0.0089,-0.0067,-0.0062,-0.0017,-0.0022,-0.0018,-0.0015,0.0024,0.0024,0.0025,0.0011,0.0011,0.0011,0,0,0,0,0,0,-0.0179,-0.0161,-0.0155,-0.0153,-0.0138,-0.0113,-0.0111,-0.0099,-0.008,-0.0079,-0.0056,-0.005,-0.0033,-0.0021,-0.0027,0.0002,0.0004,0.0005,-0.0009,-0.0009,-0.0009,-0.002,-0.0018,0,0,0,0,0,-0.0185,-0.0183,-0.0163,-0.0162,-0.0156,-0.0135,-0.0127,-0.0115,-0.0095,-0.0087,-0.0068,-0.0047,-0.0026,-0.0015,0.0003,0.0018,0.0031,0.0023,0.0023,0.0023,0.0017,0.0043,0.0044,0.0028,0.0028,0.0028,0,0,-0.0193,-0.0183,-0.0183,-0.0166,-0.0154,-0.0147,-0.013,-0.0121,-0.0113,-0.0086,-0.0071,-0.0048,-0.0021,-0.0002,0.0007,0.0008,0.0035,0.0024,0.0023,0.0017,0.0044,0.0045,0.0047,0.0029,0.0029,0.0028,0,0,-0.0208,-0.0199,-0.0202,-0.0191,-0.0175,-0.016,-0.016,-0.0135,-0.0123,-0.0104,-0.008,-0.0055,-0.0029,-0.0004,0.0011,0.0021,0.0033,0.0025,0.0015,0.0041,0.0042,0.0043,0.0063,0.0066,0.0025,0.0025,0.0025,0,-0.0219,-0.0219,-0.0201,-0.0199,-0.0193,-0.0169,-0.017,-0.0151,-0.0123,-0.0112,-0.0104,-0.0053,-0.0029,0.0001,0.0008,0.002,0.0033,0.0013,0.004,0.0042,0.0043,0.0063,0.0067,0.0025,0.0025,0.0025,0.0025,0,-0.0232,-0.0233,-0.0234,-0.0224,-0.0215,-0.0212,-0.0186,-0.0174,-0.0157,-0.0136,-0.0106,-0.0067,-0.0038,-0.0022,-0.0003,0.0022,0.0027,0.0036,0.0038,0.0044,0.0064,0.0068,0.0024,0.0024,0.0024,0.0024,0,0,-0.0255,-0.0247,-0.0248,-0.0252,-0.0229,-0.0226,-0.021,-0.019,-0.0185,-0.0148,-0.0136,-0.0084,-0.0063,-0.0045,-0.0014,0.0013,0.0042,0.0026,0.0028,0.0041,0.0093,0.0088,0.0093,0.0054,0.0055,0.0055,0.0103,0,-0.0272,-0.0283,-0.0268,-0.0279,-0.0283,-0.0256,-0.0247,-0.0224,-0.0199,-0.0179,-0.013,-0.0106,-0.0072,-0.0059,-0.0024,0.0025,0.0051,0.0028,0.0089,0.0091,0.0082,0.0097,0.0057,0.0106,0.0107,0.0108,0.0108,0,-0.0288,-0.0296,-0.0311,-0.0314,-0.0313,-0.0313,-0.03,-0.0287,-0.0246,-0.0226,-0.0186,-0.015,-0.0097,-0.0076,0.0012,-0.0006,0.0038,0.0077,0.008,0.0081,0.0094,0.01,0.0116,0.0115,0.0115,0.0114,0.0114,0,-0.0318,-0.0325,-0.0344,-0.0342,-0.0338,-0.0341,-0.0336,-0.0304,-0.0298,-0.0256,-0.0247,-0.0178,-0.0148,-0.0079,0.001,0.0008,0.01,0.0108,0.0146,0.0147,0.0142,0.014,0.0161,0.0161,0.0161,0.0161,0.0161,0,-0.034,-0.0355,-0.0364,-0.0374,-0.0401,-0.0379,-0.0394,-0.0375,-0.0349,-0.0344,-0.0277,-0.0256,-0.0149,-0.008,-0.0002,0.0087,0.0094,0.0145,0.016,0.0135,0.0132,0.0145,0.0142,0.0162,0.0162,0.0162,0.0161,0,-0.0365,-0.0369,-0.0397,-0.0409,-0.0418,-0.0436,-0.0444,-0.045,-0.0417,-0.0407,-0.0397,-0.0314,-0.022,-0.011,0.0007,0.0066,0.0154,0.0183,0.0146,0.0159,0.0185,0.0181,0.0225,0.0225,0.0225,0.0225,0.0225,0,-0.0378,-0.0395,-0.0433,-0.046,-0.0469,-0.0494,-0.0512,-0.049,-0.0493,-0.044,-0.044,-0.0349,-0.0282,-0.0117,-0.0003,0.0146,0.0165,0.0205,0.0198,0.0182,0.0192,0.0188,0.0184,0.0226,0.0226,0.0226,0.0226,0,-0.0405,-0.0422,-0.0446,-0.0505,-0.0538,-0.0572,-0.0591,-0.0595,-0.0561,-0.0536,-0.0469,-0.0369,-0.0263,-0.0125,-0.0006,0.0099,0.0177,0.0207,0.0208,0.0201,0.0184,0.0193,0.0189,0.0227,0.0227,0.0226,0.0226,0,-0.0426,-0.0455,-0.0495,-0.0543,-0.0594,-0.063,-0.0634,-0.0624,-0.0614,-0.0544,-0.0524,-0.039,-0.031,-0.0149,-0.004,0.0067,0.0088,0.0113,0.0118,0.0119,0.0077,0.0038,0.0049,0,0,0,0,0,-0.0442,-0.0478,-0.0531,-0.0581,-0.0633,-0.0661,-0.068,-0.0671,-0.0637,-0.0597,-0.0555,-0.0449,-0.0269,-0.0191,-0.0085,-0.0046,0.0098,0.0079,0.0126,0.0231,0.023,0.0199,0,0,0,0,0,0,-0.0453,-0.0505,-0.0533,-0.0605,-0.0645,-0.0696,-0.0709,-0.0686,-0.0654,-0.0603,-0.0507,-0.0439,-0.0266,-0.0331,-0.0089,-0.0055,-0.0015,0.0169,0.0171,0.0232,0.0231,0.023,0.0197,0,0,0,0,0]}]]